[[{"header":{"parameterUnit":"m.s-1","parameterCategory":1,"la1":30.2991,"la2":30.254,"lo1":-89.0895,"lo2":-89.0444,"dy":0.0017,"dx":0.0017,"nx":28,"ny":28,"refTime":"2023-09-12T09:00:00:Z","depth":0,"parameterNumber":2,"parameterNumberName":"U-component_of_WINDS"},"data":[0,0,0,0,0,0,0,0,0,0,0,0,0,0,0,0,0,0,0,0,0,0,0,0,0,0,0,0,0,0,0,0,0,0,0,0,0,0,0,0,0,0,0,0,0,0,0,0,0,0,0,0,0,0,0,0,0,0,-0.0172,-0.0172,0,-0.0159,-0.0159,-0.0159,-0.0162,-0.0162,-0.0162,-0.0162,-0.0149,-0.0148,-0.0147,0,0,0,0,0,0,0,0,0,0,0,0,0,-0.0202,-0.0201,-0.0172,-0.0172,-0.0172,-0.0159,-0.0159,-0.0159,-0.0162,-0.0162,-0.0162,-0.0163,-0.0149,-0.0148,-0.0147,0,0,0,0,0,0,0,0,0,0,0,0,0,-0.0189,-0.0201,-0.0172,-0.0172,-0.0172,-0.0159,-0.0159,-0.0158,-0.0162,-0.0162,-0.0162,-0.0163,-0.0149,-0.0148,-0.0147,-0.0134,0,0,-0.0144,-0.0144,0,0,0,0,0,0,0,0,-0.0189,-0.0188,-0.0172,-0.0172,-0.0172,-0.0162,-0.0164,-0.015,-0.0162,-0.0165,-0.0162,-0.0163,-0.0153,-0.0152,-0.0148,-0.0133,-0.0133,-0.0144,-0.0144,-0.0143,-0.0143,0,0,0,0,0,0,0,-0.019,-0.0188,-0.0167,-0.0172,-0.0172,-0.0173,-0.0171,-0.0161,-0.0157,-0.0165,-0.0165,-0.0164,-0.0153,-0.0149,-0.0148,-0.0132,-0.0144,-0.0144,-0.0143,-0.0143,-0.0107,-0.0107,0,0,0,0,0,0,-0.0191,-0.0189,-0.0167,-0.0167,-0.0182,-0.0172,-0.017,-0.0165,-0.0157,-0.0156,-0.0163,-0.0164,-0.0151,-0.0149,-0.0147,-0.0132,-0.0143,-0.0143,-0.0142,-0.0107,-0.0107,-0.0106,0,0,0,0,0,0,-0.0192,-0.0189,-0.0168,-0.0178,-0.0175,-0.0171,-0.0165,-0.0165,-0.0161,-0.0156,-0.0155,-0.016,-0.0151,-0.0149,-0.0137,-0.0132,-0.0142,-0.0141,-0.0108,-0.0107,-0.0107,-0.0101,0,0,0,0,0,0,-0.0193,-0.019,-0.0184,-0.0178,-0.0175,-0.0158,-0.0165,-0.0164,-0.0159,-0.016,-0.0153,-0.0152,-0.0151,-0.0139,-0.0137,-0.0131,-0.0141,-0.0108,-0.0108,-0.0107,-0.0101,-0.01,-0.0099,0,0,0,0,0,-0.0194,-0.0183,-0.0184,-0.0181,-0.0168,-0.0158,-0.0156,-0.0155,-0.0159,-0.0154,-0.0151,-0.0152,-0.0133,-0.0138,-0.0135,-0.0129,-0.0109,-0.0108,-0.0107,-0.0102,-0.01,-0.0099,0,0,0,0,0,0,-0.0188,-0.0182,-0.0183,-0.0169,-0.0164,-0.0158,-0.0151,-0.0153,-0.0146,-0.0147,-0.0146,-0.0144,-0.0133,-0.013,-0.0135,-0.0116,-0.0121,-0.012,-0.0119,-0.0117,-0.0116,-0.0117,-0.014,0,0,0,0,0,-0.0185,-0.0178,-0.0172,-0.0161,-0.0158,-0.0155,-0.0151,-0.0151,-0.0145,-0.0143,-0.0139,-0.0133,-0.0126,-0.0121,-0.0114,-0.0101,-0.01,-0.0096,-0.0094,-0.0093,-0.0092,-0.0086,-0.0084,-0.0103,-0.0103,-0.0104,0,0,-0.0179,-0.0175,-0.017,-0.016,-0.0156,-0.0148,-0.0153,-0.0145,-0.0139,-0.0141,-0.0131,-0.0128,-0.0122,-0.011,-0.0104,-0.0107,-0.0087,-0.0092,-0.0091,-0.0091,-0.0085,-0.0083,-0.0082,-0.0103,-0.0103,-0.0103,0,0,-0.0165,-0.016,-0.0151,-0.0147,-0.0141,-0.0139,-0.0137,-0.0131,-0.0129,-0.0119,-0.0121,-0.0114,-0.0101,-0.0097,-0.0093,-0.0079,-0.008,-0.0076,-0.007,-0.0064,-0.0062,-0.0061,-0.0056,-0.0055,-0.0075,-0.0075,-0.0075,0,-0.0158,-0.0147,-0.0146,-0.0138,-0.0133,-0.0135,-0.0126,-0.0122,-0.0114,-0.0111,-0.0114,-0.0099,-0.0095,-0.0083,-0.0079,-0.0076,-0.0074,-0.0077,-0.0063,-0.0061,-0.006,-0.0056,-0.0054,-0.0075,-0.0075,-0.0075,-0.0075,0,-0.014,-0.0132,-0.0125,-0.0117,-0.0112,-0.0103,-0.0102,-0.0097,-0.0097,-0.0096,-0.0085,-0.0081,-0.0073,-0.007,-0.007,-0.0058,-0.006,-0.0063,-0.0068,-0.0058,-0.0054,-0.0052,-0.0074,-0.0074,-0.0075,-0.0075,0,0,-0.012,-0.0114,-0.0111,-0.0108,-0.0102,-0.0096,-0.0088,-0.0081,-0.0077,-0.0072,-0.0065,-0.0055,-0.0058,-0.0053,-0.0053,-0.0048,-0.0038,-0.0051,-0.0051,-0.005,-0.0025,-0.0024,-0.0022,-0.0039,-0.0039,-0.0038,-0.0026,0,-0.0106,-0.0091,-0.0091,-0.0078,-0.0071,-0.0074,-0.0067,-0.0062,-0.0061,-0.0055,-0.0053,-0.0046,-0.005,-0.0047,-0.0042,-0.004,-0.0033,-0.0041,-0.0033,-0.0033,-0.0035,-0.002,-0.0018,-0.0006,-0.0025,-0.0024,-0.0024,0,-0.0087,-0.0082,-0.0068,-0.0064,-0.0061,-0.0055,-0.0049,-0.0043,-0.0039,-0.0038,-0.0034,-0.0035,-0.0027,-0.0032,-0.0022,-0.0027,-0.0024,-0.0023,-0.0022,-0.0022,-0.0028,-0.0019,-0.0003,-0.0001,-0.0021,-0.0022,-0.0022,0,-0.0075,-0.0065,-0.0055,-0.0053,-0.0048,-0.0043,-0.0041,-0.0037,-0.0033,-0.0028,-0.0026,-0.002,-0.0017,-0.0012,-0.0012,-0.0016,-0.0002,-0.0007,-0.0001,-0.0001,0.0002,0.0002,0.0019,0.0005,0.0005,0.0004,0.0004,0,-0.006,-0.0051,-0.005,-0.0045,-0.0036,-0.0036,-0.0027,-0.0025,-0.0022,-0.0016,-0.0018,-0.0012,-0.0012,-0.0006,-0.0006,0.0002,0.0004,0.0004,0.0004,0.0004,0.0004,0.0006,0.0005,0.0005,0.0005,0.0005,0.0005,0,-0.0045,-0.0044,-0.0034,-0.0031,-0.003,-0.0023,-0.002,-0.0015,-0.0014,-0.0007,-0.0005,-0.0004,0.0002,0.0003,0.0011,0.0011,0.002,0.002,0.0019,0.0019,0.0024,0.0023,0.0043,0.0045,0.003,0.003,0.003,0,-0.0035,-0.0029,-0.0025,-0.0022,-0.0019,-0.0013,-0.001,-0.001,-0.0006,-0.0001,0.0003,0.0009,0.0013,0.0023,0.0025,0.003,0.003,0.0036,0.003,0.003,0.0029,0.0028,0.0029,0.0037,0.0037,0.0037,0.0037,0,-0.0018,-0.0018,-0.0013,-0.0008,-0.0004,0.0,0.0004,0.0007,0.0007,0.0011,0.0017,0.0021,0.0028,0.0033,0.0038,0.0041,0.0039,0.0039,0.0041,0.004,0.0039,0.0039,0.0021,0.0039,0.0039,0.0038,0.0038,0.0038,-0.0006,-0.0001,0.0002,0.0007,0.001,0.0013,0.0018,0.0019,0.0024,0.003,0.0029,0.0036,0.0039,0.0046,0.0048,0.0053,0.0051,0.0053,0.0053,0.0054,0.0054,0.0039,0.0054,0.0054,0.0054,0.0054,0.0054,0,0.001,0.0012,0.0017,0.0022,0.0026,0.0024,0.0027,0.0031,0.0036,0.004,0.0044,0.005,0.0055,0.0057,0.0062,0.0065,0.0065,0.0067,0.0066,0.0067,0.0056,0.0054,0.0067,0.0067,0.0067,0.0067,0.0067,0.0067,0.0019,0.0027,0.0027,0.0036,0.0037,0.0043,0.0046,0.0048,0.0051,0.0058,0.0062,0.0063,0.0065,0.007,0.0075,0.0075,0.0077,0.0079,0.0079,0.0069,0.0067,0.0066,0.0064,0.0079,0.0079,0.0089,0.0089,0.0089]},{"header":{"parameterUnit":"m.s-1","parameterCategory":1,"la1":30.2991,"la2":30.254,"lo1":-89.0895,"lo2":-89.0444,"dy":0.0017,"dx":0.0017,"nx":28,"ny":28,"refTime":"2023-09-12T09:00:00:Z","depth":0,"parameterNumber":3,"parameterNumberName":"V-component_of_WINDS"},"data":[0,0,0,0,0,0,0,0,0,0,0,0,0,0,0,0,0,0,0,0,0,0,0,0,0,0,0,0,0,0,0,0,0,0,0,0,0,0,0,0,0,0,0,0,0,0,0,0,0,0,0,0,0,0,0,0,0,0,4.4051,4.405,0,4.4022,4.4021,4.4021,4.4017,4.4017,4.4018,4.4018,4.3985,4.3984,4.3983,0,0,0,0,0,0,0,0,0,0,0,0,0,4.4098,4.4097,4.4051,4.405,4.405,4.4022,4.4021,4.4021,4.4017,4.4017,4.4018,4.4018,4.3985,4.3984,4.3982,0,0,0,0,0,0,0,0,0,0,0,0,0,4.4074,4.4097,4.4051,4.4045,4.4044,4.4022,4.4021,4.4021,4.4017,4.4018,4.4018,4.4018,4.3986,4.3984,4.3982,4.3963,0,0,4.3977,4.3976,0,0,0,0,0,0,0,0,4.4075,4.4072,4.4046,4.4045,4.4044,4.4024,4.4026,4.4001,4.4017,4.4027,4.4018,4.4019,4.3997,4.3994,4.3988,4.3961,4.396,4.3977,4.3976,4.3975,4.3975,0,0,0,0,0,0,0,4.4077,4.4073,4.4039,4.4046,4.4044,4.4042,4.4039,4.4021,4.401,4.4026,4.4026,4.4023,4.3997,4.399,4.3987,4.396,4.3977,4.3975,4.3974,4.3974,4.3912,4.3912,0,0,0,0,0,0,4.408,4.4075,4.404,4.4038,4.4061,4.4041,4.4037,4.403,4.401,4.4008,4.4022,4.4023,4.3992,4.3989,4.3986,4.396,4.3975,4.3973,4.3972,4.3913,4.3912,4.3912,0,0,0,0,0,0,4.4081,4.4077,4.4041,4.4056,4.4052,4.4039,4.4031,4.4029,4.4022,4.4007,4.4005,4.4018,4.3993,4.3988,4.3968,4.3959,4.3973,4.3971,4.3914,4.3913,4.3912,4.3909,0,0,0,0,0,0,4.4083,4.4078,4.4072,4.4056,4.4051,4.4026,4.403,4.4028,4.4019,4.4019,4.4002,4.4,4.3993,4.3971,4.3967,4.3957,4.397,4.3914,4.3913,4.3912,4.391,4.3909,4.3907,0,0,0,0,0,4.4084,4.4072,4.4071,4.4067,4.4043,4.4025,4.4022,4.4015,4.4019,4.4011,4.4002,4.4,4.3961,4.3969,4.3964,4.3954,4.3915,4.3914,4.3912,4.3911,4.3909,4.3907,0,0,0,0,0,0,4.4086,4.407,4.4069,4.4052,4.404,4.4025,4.4015,4.4013,4.4,4.4,4.3991,4.3987,4.3967,4.3958,4.3967,4.3932,4.3938,4.3936,4.3939,4.3937,4.3935,4.3937,4.3968,0,0,0,0,0,4.4084,4.4072,4.4059,4.4044,4.4038,4.4028,4.402,4.4015,4.4002,4.3997,4.3986,4.3972,4.3956,4.3946,4.3931,4.3909,4.3904,4.3899,4.3898,4.3896,4.3894,4.3879,4.3876,4.3907,4.3907,4.3907,0,0,4.408,4.407,4.4063,4.4044,4.4035,4.402,4.4024,4.4009,4.3998,4.3995,4.3975,4.3966,4.3949,4.3928,4.3917,4.392,4.3884,4.3895,4.3894,4.3892,4.3877,4.3874,4.3872,4.3906,4.3906,4.3907,0,0,4.4066,4.4059,4.4045,4.4035,4.402,4.4013,4.401,4.3994,4.3988,4.3968,4.3964,4.395,4.3924,4.3912,4.3902,4.3881,4.3878,4.3876,4.3867,4.3853,4.385,4.3848,4.3838,4.3835,4.3874,4.3874,4.3874,0,4.4063,4.4044,4.4038,4.4023,4.4013,4.401,4.3994,4.3985,4.3965,4.3958,4.3961,4.3927,4.3916,4.389,4.3884,4.3877,4.3871,4.3878,4.3851,4.3849,4.3847,4.3837,4.3833,4.3874,4.3874,4.3874,4.3874,0,4.4039,4.4025,4.4016,4.3998,4.3987,4.3972,4.3962,4.3952,4.3948,4.3939,4.3917,4.3904,4.3884,4.3878,4.3874,4.385,4.3852,4.3853,4.3859,4.3843,4.3834,4.383,4.3873,4.3873,4.3873,4.3873,0,0,4.4026,4.4004,4.4,4.3991,4.3974,4.3962,4.3945,4.3927,4.3918,4.3904,4.3888,4.3865,4.3865,4.3854,4.3848,4.3836,4.3816,4.3838,4.3837,4.3832,4.3786,4.3784,4.378,4.3814,4.3814,4.3813,4.3786,0,4.4009,4.3981,4.3974,4.395,4.3935,4.393,4.3916,4.3902,4.3893,4.3878,4.3867,4.385,4.3853,4.3846,4.3833,4.3821,4.3806,4.3823,4.3797,4.3796,4.38,4.3776,4.3774,4.375,4.3783,4.3782,4.3782,0,4.3986,4.3972,4.3946,4.3928,4.3921,4.3909,4.389,4.3876,4.386,4.3854,4.384,4.3835,4.3815,4.3822,4.3792,4.3804,4.3792,4.3785,4.3783,4.378,4.3788,4.3769,4.3742,4.3738,4.3777,4.3777,4.3777,0,4.3976,4.3951,4.3931,4.3924,4.3903,4.3894,4.3884,4.3868,4.3857,4.384,4.3832,4.3813,4.3802,4.3785,4.3774,4.3781,4.3744,4.3751,4.3737,4.3737,4.3729,4.3729,4.3698,4.3724,4.3724,4.3724,4.3724,0,4.3957,4.3941,4.3927,4.3915,4.3895,4.3886,4.3867,4.3857,4.3842,4.3826,4.382,4.3805,4.3792,4.3774,4.3764,4.374,4.3735,4.3728,4.3725,4.3728,4.3728,4.3719,4.372,4.3723,4.3724,4.3724,4.3724,0,4.3944,4.3934,4.3912,4.3894,4.3888,4.3875,4.3858,4.3845,4.3835,4.3815,4.3809,4.3793,4.3772,4.3759,4.3731,4.3725,4.3697,4.3696,4.3703,4.3701,4.3687,4.3687,4.3647,4.364,4.3673,4.3673,4.3672,0,4.3932,4.3919,4.3899,4.3889,4.3879,4.3862,4.385,4.384,4.3828,4.3806,4.3794,4.3773,4.3755,4.3719,4.3704,4.3682,4.3679,4.3666,4.3676,4.3677,4.3676,4.3676,4.3674,4.3665,4.3664,4.3664,4.3664,0,4.3911,4.3906,4.389,4.3871,4.3858,4.3842,4.3827,4.3818,4.3804,4.379,4.3768,4.3754,4.3725,4.3702,4.3679,4.3666,4.3661,4.3661,4.3656,4.3658,4.3661,4.3656,4.3696,4.3662,4.3662,4.3662,4.3662,4.3662,4.3896,4.3884,4.3867,4.3849,4.3836,4.3821,4.3807,4.3795,4.3777,4.3754,4.3748,4.3724,4.3704,4.3672,4.3659,4.3638,4.364,4.3634,4.3632,4.363,4.3628,4.3666,4.3634,4.3634,4.3634,4.3634,4.3634,0,4.3873,4.3862,4.3845,4.3824,4.3808,4.3806,4.3788,4.3775,4.3754,4.3737,4.3719,4.3692,4.3669,4.3651,4.3627,4.3613,4.361,4.3607,4.3607,4.3604,4.3629,4.3635,4.361,4.361,4.361,4.361,4.361,4.361,4.386,4.3838,4.383,4.3801,4.3789,4.3766,4.3756,4.3741,4.3726,4.3697,4.3678,4.3667,4.3648,4.3622,4.36,4.3595,4.3585,4.3582,4.3576,4.36,4.3602,4.3605,4.361,4.358,4.358,4.3552,4.3552,4.3551]}]]